Nagpur Sonegaon, India

9:48 PM IST on September 28, 2016 (GMT +0530)
Nagpur

Weather History for VANP - October, 2012

Change the Weather History Date:

Saturday, October 13, 2012

  Actual Average Record
Temperature  
Mean Temperature 78 °F -  
Max Temperature 93 °F - - ()
Min Temperature 63 °F - - ()
Cooling Degree Days 13    
Growing Degree Days 28 (Base 50)    
Moisture  
Dew Point 64 °F    
Average Humidity 59    
Maximum Humidity 91    
Minimum Humidity 29    
Precipitation  
Precipitation 0.00 in - - ()
Sea Level Pressure  
Sea Level Pressure 29.87 in    
Wind  
Wind Speed 2 mph ()    
Max Wind Speed 6 mph    
Max Gust Speed -    
Visibility 2.9 miles    
Events      
T = Trace of Precipitation, MM = Missing Value Source: Averaged Metar Reports

Daily Weather History Graph

Daily Weather History Graph

Search for Another Location

Airport or City:

Trip Planner

Search our weather history database for the weather conditions in past years. The results will help you decide how hot, cold, wet, or windy it might be!

Date:

Astronomy

Oct. 13, 2012 Rise Set
Actual Time 6:08 AM IST 5:51 PM IST
Civil Twilight 5:46 AM IST 6:13 PM IST
Nautical Twilight 5:20 AM IST 6:39 PM IST
Astronomical Twilight 4:54 AM IST 7:04 PM IST
Moon 3:42 AM IST (10/13) 4:07 PM IST (10/13)
Length of Visible Light 12h 27m
Length of Day
11h 42m
Waning Crescent, 7% of the Moon is Illuminated
Oct 13
Waning Crescent
Oct 15
New
Oct 22
First Quarter
Oct 30
Full
Nov 7
Last Quarter

Hourly Weather History & Observations

Time (IST) Temp. Heat Index Dew Point Humidity Pressure Visibility Wind Dir Wind Speed Gust Speed Precip Events Conditions
12:10 AM 71.6 °F - 62.6 °F 73% 29.86 in 3.1 mi Calm Calm - N/A   Haze
1:10 AM 69.8 °F - 62.6 °F 78% 29.86 in 3.1 mi Calm Calm - N/A   Haze
2:10 AM 69.8 °F - 62.6 °F 78% 29.86 in 3.1 mi East 2.3 mph - N/A   Haze
2:30 AM 65 °F - 61 °F 84% 29.82 in 2 mi Calm Calm - -   Haze
3:10 AM 68.0 °F - 62.6 °F 83% 29.83 in 3.1 mi Calm Calm - N/A   Haze
5:10 AM 68.0 °F - 60.8 °F 78% 29.86 in 3.1 mi NNW 3.5 mph - N/A   Haze
5:30 AM 64 °F - 62 °F 91% 29.87 in 2 mi NW 3.5 mph - -   Haze
6:10 AM 69.8 °F - 62.6 °F 78% 29.89 in 2.5 mi North 3.5 mph - N/A   Haze
7:10 AM 69.8 °F - 62.6 °F 78% 29.92 in 2.5 mi Calm Calm - N/A   Haze
8:10 AM 77.0 °F - 64.4 °F 65% 29.92 in 2.5 mi North 2.3 mph - N/A   Haze
8:30 AM 77 °F - 65 °F 57% 29.91 in 2 mi NNE 2.3 mph - -   Haze
9:10 AM 82.4 °F 84.6 °F 66.2 °F 58% 29.95 in 3.7 mi North 3.5 mph - N/A   Haze
10:10 AM 86.0 °F 88.2 °F 66.2 °F 51% 29.95 in 3.7 mi NE 3.5 mph - N/A   Unknown
11:10 AM 93.2 °F 94.1 °F 62.6 °F 36% 29.92 in 3.7 mi WSW 3.5 mph - N/A   Unknown
11:30 AM 90 °F - 64 °F 32% 29.85 in 2 mi SSW 2.3 mph - -  
12:10 PM 93.2 °F 94.1 °F 62.6 °F 36% 29.89 in 3.7 mi NE 3.5 mph - N/A   Unknown
1:10 PM 95.0 °F 95.2 °F 60.8 °F 32% 29.86 in 3.7 mi SE 4.6 mph - N/A   Unknown
2:10 PM 95.0 °F 95.2 °F 60.8 °F 32% 29.83 in 3.7 mi North 4.6 mph - N/A   Unknown
2:30 PM 91 °F - 63 °F 29% 29.77 in 2 mi East 5.8 mph - -  
3:10 PM 95.0 °F 96.0 °F 62.6 °F 34% 29.83 in 3.7 mi East 4.6 mph - N/A   Unknown
4:10 PM 95.0 °F 96.0 °F 62.6 °F 34% 29.83 in 3.7 mi East 3.5 mph - N/A   Unknown
5:10 PM 91.4 °F 94.0 °F 66.2 °F 43% 29.83 in 3.7 mi Calm Calm - N/A   Unknown
5:30 PM 82 °F - 70 °F 60% 29.79 in 2 mi Calm Calm - -  
6:10 PM 86.0 °F 88.2 °F 66.2 °F 51% 29.83 in 3.1 mi Calm Calm - N/A   Haze
7:10 PM 84.2 °F 85.0 °F 62.6 °F 48% 29.86 in 3.1 mi Calm Calm - N/A   Haze
8:10 PM 80.6 °F 81.8 °F 62.6 °F 54% 29.89 in 3.1 mi NW 2.3 mph - N/A   Haze
8:30 PM 71 °F - 66 °F 80% 29.88 in 2 mi West 2.3 mph - -   Haze
9:10 PM 77.0 °F - 64.4 °F 65% 29.92 in 3.1 mi WNW 2.3 mph - N/A   Haze
11:30 PM 68 °F - 65 °F 86% 29.90 in 1 mi Calm Calm - -   Haze